{"data":{"norad_id":64024,"intl_designator":"2025-102C","name":"STARLINK-34184","alt_names":[],"object_type":"PAYLOAD","status":"ACTIVE","operator":null,"country":"US","launch_date":"2025-05-16","launch_site_code":"AFWTR","launch_vehicle":null,"mission":null,"orbit_class":"UNKNOWN","rcs_meters":null,"size_class":null,"mass_kg":null,"dimensions":null,"purposes":["comms"],"wikipedia_slug":null,"has_3d_model":false,"image_url":null,"decayed_at":null,"tle_current":{"epoch":"2026-09-20T22:28:57.460224Z","epoch_age_seconds":105872,"freshness":"FRESH","line1":"1 64024U 25102C   26263.93677616  .00009921  00000+0  34900-3 0  9999","line2":"2 64024  69.9992 339.5629 0003463 271.6476  88.4302 15.29590753 75157","mean_motion":15.29590753,"eccentricity":0.0003463,"inclination_deg":69.9992,"raan_deg":339.5629,"arg_perigee_deg":271.6476,"mean_anomaly_deg":88.4302,"bstar":0.000349,"rev_number":7515,"period_min":94.142828542583,"perigee_km":474.66082893253,"apogee_km":479.40872090384,"semimajor_km":6855.1717749182,"source":"CELESTRAK","updated_at":"2026-09-21T09:00:35.186047Z"}}}